Regional Weather Roundup
Issued by NWS Midland/Odessa, TX

Skip options and go directly to product.
Home | Oldest Version | Previous Version | Current Version | All | Graphics & Text | Save Text | Print | Product List | Glossary On

Skip product version selection by date and time.   
966
ASUS44 KMAF 241810
RWRMAF
MIDLAND AREA WEATHER ROUNDUP
NATIONAL WEATHER SERVICE MIDLAND TX
100 PM CDT SUN JUL 24 2016

...IN SOUTHWEST TEXAS AND SOUTHEAST NEW MEXICO...

CITY           SKY/WX    TMP DP  RH WIND       PRES   REMARKS
ALPINE         PTSUNNY   94  53  24 SE3       30.14F
ANDREWS        FAIR      95  57  28 S14G26    30.05F
ARTESIA        SUNNY     95  57  28 SE14G23   30.04F
BIG SPRING     MOSUNNY   93  62  35 E7        30.05S
CARLSBAD       SUNNY     95  57  27 E7        30.01F
DRYDEN           N/A     96  64  34 SE6       29.96F
FORT STOCKTON  SUNNY     96  61  31 E8        29.99F
GUAD PASS      SUNNY     91  48  22 E14G24    30.18F
HOBBS          SUNNY     91  55  29 E13G21    30.08F
MARFA          SUNNY     90  55  30 S8        30.14F
MIDLAND AIRPK  MOSUNNY   96  58  27 SE14G21   30.03F
MIDLAND INTL   SUNNY     95  59  30 SE16G26   30.03F
ODESSA         SUNNY     95  59  30 SE13G25   30.03F
PECOS          SUNNY     99  58  26 E8G17     29.96F
PRESIDIO       FAIR      99  56  24 E9        29.96F
SEMINOLE       MOSUNNY   95  55  25 SE10      30.07F
SNYDER           N/A     93  63  36 SE5       30.03F
WINK           SUNNY     96  62  32 SE13      29.98F
$$
...OTHER STATIONS IN TEXAS...

CITY           SKY/WX    TMP DP  RH WIND       PRES   REMARKS
ABILENE        MOSUNNY   95  65  37 VRB6      30.00F
AMARILLO       SUNNY     96  57  27 S10       30.09F
AUSTIN         MOSUNNY   94  70  45 S8        29.95F HX 100
BROWNSVILLE    MOSUNNY   94  75  54 SE16G23   29.92F HX 105
CORPUS CHRISTI PTSUNNY   93  75  55 SE15G23   29.93F HX 104
DALLAS FTW     MOSUNNY   96  69  41 SW6       29.96F HX 102
DEL RIO        SUNNY     96  68  39 SE12G22   29.92F HX 101
EL PASO        MOSUNNY   95  47  19 W3        30.01F
HOUSTON INT    MOSUNNY   95  71  45 VRB6      29.95F HX 102
LUBBOCK        MOSUNNY   95  57  27 SE7       30.07F
SAN ANGELO     SUNNY     94  65  38 CALM      29.99F
SAN ANTONIO    MOSUNNY   92  70  48 E10       29.97F
WACO           SUNNY     95  69  42 MISG      29.96F HX 100
WICHITA FALLS  NOT AVBL
$$
...OTHER LOCATIONS IN NEW MEXICO...

CITY           SKY/WX    TMP DP  RH WIND       PRES   REMARKS
ALAMAGORDO     SUNNY     97  45  16 S7        30.04F
ALBUQUERQUE    MOSUNNY   92  47  21 NE5       30.17F
CANNON AFB     MOSUNNY   92  55  28 S7G16     30.12F
CLOVIS         SUNNY     91  55  29 S10       30.13F
HOLLOMAN AFB   SUNNY     98  46  17 VRB6      30.02F
ROSWELL        SUNNY     96  54  24 S14G21    30.05F
RUIDOSO          N/A     86  41  20 E17G23    30.31S
SANTA FE       SUNNY     88  43  20 CALM      30.24F
TRUTH OR CONSE SUNNY     94  46  19 SE5       30.09F
TUCUMCARI      SUNNY     97  51  21 S10       30.08F
$$

USA.gov is the U.S. government's official web portal to all federal, state and local government web resources and services.